This is the latest recevied weather packets stored in our database for station/object K7FRY. If no packets are shown the sender has not sent any weather packets the latest 10 day(s).
| Time | Temp. | Humidity | Pressure | Rain* | Wind** | Luminosity | Snow |
|---|---|---|---|---|---|---|---|
| 1777751946 | 29.44° C | 26% | 1016.1 hPa | 0 mm | - | 824 W/m² | - |
| 1777751643 | 28.33° C | 27% | 1016.1 hPa | 0 mm | - | 797 W/m² | - |
| 1777751339 | 28.89° C | 27% | 1016.2 hPa | 0 mm | - | 810 W/m² | - |
| 1777751036 | 28.89° C | 28% | 1016.3 hPa | 0 mm | - | 784 W/m² | - |
| 1777750732 | 28.89° C | 28% | 1016.5 hPa | 0 mm | - | 813 W/m² | - |
| 1777750429 | 28.33° C | 28% | 1016.4 hPa | 0 mm | - | 802 W/m² | - |
| 1777750125 | 27.78° C | 29% | 1016.5 hPa | 0 mm | - | 795 W/m² | - |
| 1777749822 | 28.89° C | 28% | 1016.5 hPa | 0 mm | - | 791 W/m² | - |
| 1777749519 | 28.33° C | 29% | 1016.8 hPa | 0 mm | - | 797 W/m² | - |
| 1777749217 | 28.33° C | 30% | 1016.8 hPa | 0 mm | - | 806 W/m² | - |
| 1777748914 | 28.33° C | 30% | 1016.9 hPa | 0 mm | - | 809 W/m² | - |
| 1777748612 | 27.78° C | 30% | 1017.2 hPa | 0 mm | - | 803 W/m² | - |
| 1777748307 | 27.78° C | 31% | 1017.1 hPa | 0 mm | - | 791 W/m² | - |
| 1777748003 | 27.78° C | 31% | 1016.9 hPa | 0 mm | - | 787 W/m² | - |
| 1777747700 | 27.22° C | 31% | 1017.3 hPa | 0 mm | - | 795 W/m² | - |
| 1777747396 | 27.22° C | 32% | 1017.3 hPa | 0 mm | - | 783 W/m² | - |
| 1777747092 | 27.22° C | 31% | 1017.3 hPa | 0 mm | - | 802 W/m² | - |
| 1777746789 | 26.67° C | 32% | 1017.3 hPa | 0 mm | - | 809 W/m² | - |
| 1777746484 | 27.22° C | 31% | 1017.3 hPa | 0 mm | - | 810 W/m² | - |
| 1777746179 | 27.22° C | 31% | 1017.6 hPa | 0 mm | - | 806 W/m² | - |
| 1777745876 | 27.22° C | 31% | 1017.9 hPa | 0 mm | - | 782 W/m² | - |
| 1777745575 | 27.22° C | 32% | 1018 hPa | 0 mm | - | 767 W/m² | - |
| 1777745272 | 26.67° C | 33% | 1017.8 hPa | 0 mm | - | 775 W/m² | - |
| 1777744970 | 26.67° C | 33% | 1017.9 hPa | 0 mm | - | 789 W/m² | - |
| 1777744669 | 26.67° C | 32% | 1017.9 hPa | 0 mm | - | 790 W/m² | - |
* Rain latest hour (hover to see other rain measurements)
** Current wind speed in m/s (hover to see current wind gust speed)